Location: Unspecified
(52.0000°N, 4.4000°E)
Time: 22:08:34
(UTC+00:00)

Meteor 2-15 - Pass Details

Date: 14 May 2025
Orbit: 935 x 956 km, 82.5° (Epoch: 15 June)

Event Time Altitude Azimuth Distance (km) Brightness Sun altitude
Rises 22:58:08 0° 349° (N) 3,635 9.2 -18.6°
Reaches altitude 10° 23:00:39 10° 351° (N) 2,683 8.1 -18.6°
Maximum altitude 23:06:49 79° 78° (ENE) 968 4.4 -18.8°
Enters shadow 23:09:51 32° 161° (SSE) 1,574 5.0 -18.8°
